Home   Weather   Schwerte   Past weeks

Flag for Germany Past Weather in Schwerte, North Rhine-Westphalia, Germany — Yesterday and Last 2 Weeks

43 °F

Light rain. Fog.

Feels Like: 40 °F
Forecast: 41 / 47 °F
Wind: 5 mph from West

Location: Dortmund / Wickede

Current Time: Oct 22, 2016 at 1:53:19 AM

Latest Report: Oct 21, 2016 at 9:50 PM

Visibility: 2 mi

Pressure: 29.92 "Hg

Humidity: 87%

Dew Point: 39 °F

Location of SchwerteLocation

Past Weather in Schwerte — Graph


Schwerte Temperature Yesterday

Maximum temperature yesterday: 46 °F (at 4:20 PM)
Minimum temperature yesterday: 41 °F (at 8:50 AM)
Average temperature yesterday: 43 °F

High & Low Weather Summary for the Past Weeks

High66 °F (Oct 16, 3:20 PM)94% (Oct 18, 7:50 AM)30.27 "Hg (Oct 18, 7:50 AM)
Low34 °F (Oct 11, 6:20 AM)40% (Oct 16, 3:20 PM)29.65 "Hg (Oct 15, 5:20 AM)
Average48 °F76%30.05 "Hg
* Reported Oct 6 9:20 PM — Oct 21 9:50 PM, Schwerte, Weather by CustomWeather, © 2016

Note: Actual official high and low records may vary slightly from our data, if they occured in-between our weather recording intervals... More about our weather records


Schwerte Weather History for the Previous 24 Hours

Scroll right to see more
Time TempWeatherWind HumidityBarometerVisibility
9:50 PM
Fri, Oct 21
43 °FLight rain. Fog.5 mph87%29.92 "Hg2 mi
9:20 PM43 °FLight rain. Fog.12 mph87%29.92 "Hg2 mi
8:50 PM43 °FLight rain. Fog.13 mph87%29.92 "Hg2 mi
8:20 PM43 °FLight rain. Fog.14 mph87%29.92 "Hg3 mi
7:50 PM43 °FLight rain. Fog.14 mph87%29.92 "Hg3 mi
7:20 PM43 °FLight rain. Fog.12 mph87%29.92 "Hg3 mi
6:50 PM43 °FLight rain. Passing clouds.10 mph87%29.92 "Hg4 mi
6:20 PM43 °FLight rain. Partly sunny.12 mph87%29.92 "Hg4 mi
5:50 PM43 °FLight rain. Partly sunny.10 mph87%29.92 "Hg4 mi
5:20 PM45 °FLight rain. Partly sunny.10 mph81%29.95 "Hg4 mi
4:50 PM45 °FDrizzle. Partly sunny.12 mph76%29.95 "HgN/A
4:20 PM46 °FPartly sunny.9 mph76%29.95 "HgN/A
3:50 PM45 °FPartly sunny.13 mph76%29.95 "HgN/A
3:20 PM45 °FBroken clouds.12 mph76%29.95 "HgN/A
2:50 PM45 °FPartly sunny.9 mph76%29.95 "HgN/A
2:20 PM45 °FPartly sunny.10 mph76%29.95 "Hg6 mi
1:50 PM45 °FPartly sunny.9 mph76%29.95 "Hg5 mi
1:20 PM45 °FBroken clouds.7 mph81%29.98 "Hg4 mi
12:50 PM45 °FPartly sunny.5 mph76%29.98 "Hg4 mi
12:20 PM43 °FOvercast.5 mph81%29.98 "Hg6 mi
11:50 AM43 °FOvercast.5 mph81%29.98 "Hg4 mi
11:20 AM43 °FOvercast.5 mph81%29.98 "Hg4 mi
10:50 AM43 °FPartly sunny.5 mph81%29.98 "Hg4 mi
10:20 AM43 °FOvercast.3 mph81%29.98 "Hg4 mi
9:50 AM43 °FOvercast.3 mph81%29.98 "Hg4 mi
9:20 AM41 °FPartly sunny.3 mph87%29.98 "Hg4 mi
8:50 AM41 °FPartly sunny.5 mph87%29.95 "Hg4 mi
8:20 AM43 °FPartly sunny.2 mph81%29.95 "Hg4 mi
7:50 AM43 °FPassing clouds.3 mph81%29.95 "Hg6 mi
7:20 AM43 °FPassing clouds.5 mph87%29.95 "Hg6 mi
6:50 AM43 °FPassing clouds.3 mph87%29.95 "Hg5 mi
6:20 AM43 °FPassing clouds.3 mph87%29.95 "Hg4 mi
5:50 AM43 °FLow clouds.5 mph93%29.95 "Hg5 mi
5:20 AM43 °FPassing clouds.3 mph93%29.95 "Hg5 mi
Weather by CustomWeather, © 2016

See weather overviewHow to use our weather pages